Regional Weather Roundup
Issued by NWS

Home | Current Version | Previous Version | Text Only | Print | Product List | Glossary On
Versions: 1 2 3 4 5 6 7 8 9 10 11 12 13 14 15 16 17 18 19 20 21 22 23 24 25 26 27 28 29 30 31 32 33 34 35 36 37 38 39 40 41 42 43 44 45 46 47 48 49 50
000
ASUS43 KTOP 200808
RWRKS

WEATHER ROUNDUP FOR KANSAS
NATIONAL WEATHER SERVICE GOODLAND KS
200 AM CST MON FEB 20 2017

NOTE:  "FAIR" INDICATES FEW OR NO CLOUDS BELOW 12,000 FEET WITH NO
SIGNIFICANT WEATHER AND/OR OBSTRUCTIONS TO VISIBILITY.

KSZ001>006-013>018-027>032-041>047-200900-
NORTHWEST KANSAS

CITY           SKY/WX    TMP DP  RH WIND       PRES   REMARKS
GOODLAND       CLOUDY    47  33  58 SW13      29.65F
HAYS           CLOUDY    56  55  97 S15       29.73R FOG
HILL CITY      CLOUDY    53  51  93 CALM      29.68F
RUSSELL        CLOUDY    58  57  97 S18G26    29.71R FOG
$$

KSZ061>065-074>080-084>089-200900-
SOUTHWEST KANSAS

CITY           SKY/WX    TMP DP  RH WIND       PRES   REMARKS
DODGE CITY     CLOUDY    53  42  66 S9        29.75R
ELKHART          N/A     46  26  45 SW9         N/A
GARDEN CITY    CLOUDY    50  39  66 SE10      29.73R
GREAT BEND     CLOUDY    58  57  97 S15       29.75R
LIBERAL        CLOUDY    50  34  53 SE10      29.75S
PRATT          FOG       54  54  99 SE15      29.74F VSB 3/4
$$

KSZ066>073-081>083-090>101-200900-
SOUTHEAST KANSAS

CITY           SKY/WX    TMP DP  RH WIND       PRES   REMARKS
CHANUTE        CLOUDY    66  54  65 SE16G23   29.84F
COFFEYVILLE    CLOUDY    63  55  75 S9        29.84F
HUTCHINSON     CLOUDY    57  56  96 SE8       29.76F
MEDICINE LODGE   N/A     57  56  96 SE10G18   29.73F
NEWTON         CLOUDY    56  56 100 SE12      29.80S FOG
PARSONS        CLOUDY    65  54  67 SE8       29.85F
WICHITA INTL   LGT RAIN  57  55  93 SE8       29.77F FOG
WICHITA JABRA  LGT RAIN  57  57 100 SE13      29.80S
WICHITA MCCONL LGT RAIN  58  57  99 SE12      29.76F
WINFIELD       LGT RAIN  59  57  93 E7        29.79F
$$

KSZ007>012-019>026-033>040-048>060-102>105-200900-
NORTHEAST KANSAS

CITY           SKY/WX    TMP DP  RH WIND       PRES   REMARKS
CONCORDIA      CLOUDY    59  58  96 S20G26    29.73F
EMPORIA        TSTM      59  58  96 S14       29.84R FOG
LAWRENCE       CLOUDY    59  54  83 E10       29.83F
MANHATTAN      LGT RAIN  60  58  92 SE5       29.77F
MARYSVILLE     TSTM      59  57  94 SE16G22   29.78F
OLATHE IND     CLOUDY    61  54  77 SE13      29.86F
OLATHE EXE     CLOUDY    59  56  89 SE10      29.86F
SALINA         LGT RAIN  61  58  90 SE16      29.76S
TOPEKA BILLARD LGT RAIN  64  56  75 SE15G23   29.80F
TOPEKA FORBES  CLOUDY    65  57  75 SE16G26   29.80F
$$



USA.gov is the U.S. government's official web portal to all federal, state and local government web resources and services.